Regional Weather Roundup
Issued by NWS Upton, NY

Current Version | Previous Version | Text Only | Print | Product List | Glossary Off
Versions: 1 2 3 4 5 6 7 8 9 10 11 12 13 14 15 16 17 18 19 20 21 22 23 24 25 26 27 28 29 30 31 32 33 34 35 36 37 38 39 40 41 42 43 44 45 46 47 48 49 50
000 ASUS41 KOKX 191205 RWROKX REGIONAL WEATHER ROUNDUP NATIONAL WEATHER SERVICE NEW YORK NY 800 AM EDT SUN OCT 19 2014 NOTE: "FAIR" INDICATES FEW OR NO CLOUDS BELOW 12,000 FEET WITH NO SIGNIFICANT WEATHER AND/OR OBSTRUCTIONS TO VISIBILITY. NYZ071-072-176-178-NJZ106-104-191300- NEW YORK CITY METRO AREA CITY SKY/WX TMP DP RH WIND PRES REMARKS CENTRAL PARK CLOUDY 52 36 54 MISG 29.87R LAGUARDIA APRT MOCLDY 52 39 61 NW17G25 29.84R KENNEDY INTL MOCLDY 53 36 52 NW18 29.85R NEWARK/LIBERTY CLOUDY 51 38 60 NW16 29.86R BRNX BOT. GARD N/A 50 36 57 NW20 29.86R TETERBORO CLOUDY 51 36 56 NW8G17 29.85R $$ NYZ177-179-078>081-191300- LONG ISLAND NEW YORK CITY SKY/WX TMP DP RH WIND PRES REMARKS FARMINGDALE CLOUDY 54 38 54 N12 29.82R ISLIP CLOUDY 52 37 56 N14 29.80R SHIRLEY NOT AVBL WESTHAMPTON CLOUDY 52 41 66 NW12G21 29.80R MONTAUK POINT N/A 54 43 66 NW12 29.79R $$ NYZ052-065-067-191300- HUDSON VALLEY CITY SKY/WX TMP DP RH WIND PRES REMARKS WHITE PLAINS MOCLDY 50 37 61 NW15 29.82R NEWBURGH MOCLDY 48 39 71 NW12 29.86R MONTGOMERY CLOUDY 48 34 58 NW15G24 29.85R POUGHKEEPSIE MOCLDY 50 36 58 N10 29.85R ALBANY MOCLDY 45 35 68 W13G22 29.88R $$ NJZ001-105-106-008-010-013-015-019>022-104-191300- NEW JERSEY CITY SKY/WX TMP DP RH WIND PRES REMARKS NEWARK/LIBERTY CLOUDY 51 38 60 NW16 29.86R TETERBORO CLOUDY 51 36 56 NW8G17 29.85R CALDWELL CLOUDY 49 37 63 NW8 29.87R MORRISTOWN CLOUDY 50 39 66 NW9G17 29.87R SOMERVILLE CLOUDY 51 37 58 VRB7 29.87R SUSSEX CLOUDY 49 37 63 VRB5 29.88R ANDOVER N/A 47 37 68 N10G17 29.89R TRENTON CLOUDY 49 37 63 NW9 29.88R MILLVILLE PTCLDY 51 38 60 NW15G22 29.91R ATLANTIC CITY CLOUDY 51 39 63 NW14 29.88R WRIGHTSTOWN CLOUDY 50 39 64 NW10 29.86R TOMS RIVER CLOUDY 52 37 58 NW10G18 29.86R BELMAR CLOUDY 52 37 58 NW13 29.85R $$ PAZ047>061-062-071-191300- EASTERN PENNSYLVANIA CITY SKY/WX TMP DP RH WIND PRES REMARKS PHILADELPHIA MOCLDY 51 36 56 NW13 29.92R ALLENTOWN CLOUDY 47 34 60 NW13 29.92R SCRANTON LGT RAIN 43 34 70 N9 29.95R $$ CTZ002-004>006-009-010-012-RIZ004-006-007-MAZ004-011-015-191300- SOUTHERN NEW ENGLAND IN CT CITY SKY/WX TMP DP RH WIND PRES REMARKS BRADLEY INTL MOCLDY 49 36 61 N9G22 29.81R HARTFORD CLOUDY 50 37 61 VRB7 29.82R DANBURY CLOUDY 48 36 63 N9 29.84R WTRBRY/OXFORD CLOUDY 46 34 61 N14G21 29.82R BRIDGEPORT CLOUDY 51 37 58 N13 29.82R MERIDEN CLOUDY 49 37 63 NW12 29.82R NEW HAVEN CLOUDY 53 37 54 NW10G22 29.81R CHESTER PTSUNNY 48 37 66 NW13G20 29.79R GROTON CLOUDY 50 41 71 NW12 29.77R WILLIMANTIC CLOUDY 50 40 68 NW9 29.79R IN RI CITY SKY/WX TMP DP RH WIND PRES REMARKS PROVIDENCE CLOUDY 52 40 63 NW12 29.77R BLOCK ISLAND CLOUDY 54 41 62 NW13G23 29.76R WESTERLY CLOUDY 52 42 69 NW6 29.78R IN MA CITY SKY/WX TMP DP RH WIND PRES REMARKS BOSTON CLOUDY 50 39 66 W14 29.76R WORCESTER CLOUDY 44 36 73 NW9 29.77R WESTFIELD MOCLDY 48 36 63 NW12 29.81R PROVINCETOWN CLOUDY 54 41 62 NW18 29.74R NANTUCKET PTSUNNY 57 48 72 NW12 29.72R $$ ANZ330-335-338-340-345-350-353-355-191300- COASTAL MARINE OBSERVATIONS STATION/POSITION TIME SKY/WX TEMP WIND PRES VSBY WAVE AIR SEA DIR/SP/G HT/PER (UTC) (F) (DEG/KT/KT) (MB) (MI) (FT/S) NY HARB ENTRANCE NOT AVBL 4S FIRE IS 1200 65 N/A 4/11 20S FIRE ISLAND 1200 56 64 330/ 19/ 23 1008.7 6/13 23SW MTP 1200 N/A 6/14 HUDSON CANYON 1200 59 67 320/ 17/ 21 1007.9 6/ 6 EXECUTION ROCKS 1200 54 64 310/ 14/ 19 N/A WESTERN LI SOUND 1200 53 320/ 14/ 17 N/A 1/ 3 CENTRAL LI SOUND 1100 53 65 340/ 17/ 21 N/A 2/ 4 EASTERN LI SOUND 1100 54 65 330/ 14/ 19 N/A ROBBINS REEF NOT AVBL $$ >>>>>>>>>>>>>>>>>>>>>>>>>>>> KEY <<<<<<<<<<<<<<<<<<<<<<<<<<< > < > SKY/WX - SKY CONDITION/PRESENT WEATHER < > TMP - TEMPERATURE IN FAHRENHEIT < > DP - DEWPOINT IN FAHRENHEIT < > RH - RELATIVE HUMIDITY IN PERCENT < > WIND - DIRECTION AND SPEED IN MPH < > PRES - MEAN SEA LEVEL PRESSURE IN INCHES OF HG < > WCI - WIND CHILL INDEX < > VSB - VISIBILITY IN MILES < > HX - HEAT INDEX < > TC - TEMPERATURE IN CELSIUS < > VRB - VARIABLE WIND DIRECTION < > < >>>>>>>>>>>>>>>>>>>>>>>>>>>> KEY <<<<<<<<<<<<<<<<<<<<<<<<<<<

USA.gov is the U.S. government's official web portal to all federal, state and local government web resources and services.